^^
Saratoga-Weather Station Historical Data
Daily Summary for January 16, 2020 Units:  Metric    English   Both
Daily Weekly Monthly Yearly Custom
  High: Low: Average:
Temperature: 17.7 °C 9.2 °C 13.3 °C
Dew Point: 9.5 °C 5.4 °C 7.3 °C
Humidity: 90% 52% 68%
Wind Speed: 32km/h 0km/h 6km/h
Wind Gust: 37km/h - -
Wind- - SSW
Pressure: 1016.3 hPa 1007.8 hPa -
Precipitation: 3.3 mm    
Historical Graphs
 
 
Tabular Data for January 16, 2020
Time Temperature Dew Point Pressure Wind Wind Speed Wind Gust Humidity Rainfall Rate (Hourly) solar
00:04 10.9 °C 5.4 °C 1016.3 hPa ENE 3.2 km/h 3.2 km/h 69% 0.0 mm 0 W/m2
00:09 10.9 °C 5.4 °C 1016.3 hPa Calm   4.8 km/h 69% 0.0 mm 0 W/m2
00:14 10.9 °C 5.4 °C 1016.3 hPa Calm   6.4 km/h 69% 0.0 mm 0 W/m2
00:19 10.9 °C 5.4 °C 1016.3 hPa NE 7.9 km/h 9.7 km/h 69% 0.0 mm 0 W/m2
00:24 11 °C 5.5 °C 1016.3 hPa ENE 1.4 km/h 6.4 km/h 69% 0.0 mm 0 W/m2
00:29 11.1 °C 5.6 °C 1015.9 hPa NE 3.2 km/h 6.4 km/h 69% 0.0 mm 0 W/m2
00:34 11.1 °C 5.6 °C 1015.9 hPa NW 4.7 km/h 6.4 km/h 69% 0.0 mm 0 W/m2
00:39 11.1 °C 5.6 °C 1015.9 hPa NNW 6.4 km/h 8 km/h 69% 0.0 mm 0 W/m2
00:44 11.1 °C 5.6 °C 1015.9 hPa NE 4.7 km/h 4.8 km/h 69% 0.0 mm 0 W/m2
00:49 11.2 °C 5.7 °C 1015.6 hPa SSE 9.7 km/h 11.3 km/h 69% 0.0 mm 0 W/m2
00:54 11.2 °C 5.7 °C 1015.6 hPa South 3.2 km/h 19.3 km/h 69% 0.0 mm 0 W/m2
00:59 11.3 °C 5.8 °C 1015.6 hPa West 6.4 km/h 16.1 km/h 69% 0.0 mm 0 W/m2
01:04 11.4 °C 5.9 °C 1015.6 hPa WNW 7.9 km/h 9.7 km/h 69% 0.0 mm 0 W/m2
01:09 11.5 °C 5.8 °C 1015.9 hPa North 6.4 km/h 14.5 km/h 68% 0.0 mm 0 W/m2
01:14 11.6 °C 5.9 °C 1015.9 hPa WNW 14.3 km/h 14.5 km/h 68% 0.0 mm 0 W/m2
01:20 11.7 °C 6 °C 1015.9 hPa North 1.4 km/h 6.4 km/h 68% 0.0 mm 0 W/m2
01:25 11.7 °C 6 °C 1015.9 hPa NNW 6.4 km/h 6.4 km/h 68% 0.0 mm 0 W/m2
01:30 11.7 °C 6 °C 1015.9 hPa North 1.4 km/h 3.2 km/h 68% 0.0 mm 0 W/m2
01:35 11.7 °C 6 °C 1015.9 hPa West 1.4 km/h 8 km/h 68% 0.0 mm 0 W/m2
01:40 11.8 °C 6.1 °C 1015.9 hPa Calm   8 km/h 68% 0.0 mm 0 W/m2
01:45 11.8 °C 6.1 °C 1015.9 hPa WSW 1.4 km/h 11.3 km/h 68% 0.0 mm 0 W/m2
01:50 11.8 °C 6.1 °C 1015.6 hPa NW 4.7 km/h 8 km/h 68% 0.0 mm 0 W/m2
01:55 11.8 °C 6.1 °C 1015.6 hPa NE 6.4 km/h 6.4 km/h 68% 0.0 mm 0 W/m2
02:00 11.8 °C 6.1 °C 1015.6 hPa NW 1.4 km/h 8 km/h 68% 0.0 mm 0 W/m2
02:05 11.8 °C 6.1 °C 1015.6 hPa East 4.7 km/h 4.8 km/h 68% 0.0 mm 0 W/m2
02:10 11.8 °C 6.1 °C 1015.6 hPa ESE 1.4 km/h 6.4 km/h 68% 0.0 mm 0 W/m2
02:15 11.8 °C 6.1 °C 1015.2 hPa SSE 6.4 km/h 14.5 km/h 68% 0.0 mm 0 W/m2
02:20 11.8 °C 6.1 °C 1015.6 hPa ESE 1.4 km/h 6.4 km/h 68% 0.0 mm 0 W/m2
02:25 11.8 °C 6.1 °C 1015.2 hPa Calm   6.4 km/h 68% 0.0 mm 0 W/m2
02:30 11.8 °C 6.1 °C 1015.2 hPa ENE 4.7 km/h 8 km/h 68% 0.0 mm 0 W/m2
02:35 11.8 °C 6.1 °C 1015.2 hPa North 6.4 km/h 6.4 km/h 68% 0.0 mm 0 W/m2
02:40 11.8 °C 6.1 °C 1015.2 hPa North 4.7 km/h 6.4 km/h 68% 0.0 mm 0 W/m2
02:45 11.8 °C 6.1 °C 1015.2 hPa NNE 1.4 km/h 6.4 km/h 68% 0.0 mm 0 W/m2
02:50 11.8 °C 6.1 °C 1015.2 hPa NNW 6.4 km/h 16.1 km/h 68% 0.0 mm 0 W/m2
02:55 11.8 °C 6.1 °C 1014.9 hPa ESE 3.2 km/h 12.9 km/h 68% 0.0 mm 0 W/m2
03:00 11.8 °C 6.1 °C 1014.9 hPa WNW 3.2 km/h 16.1 km/h 68% 0.0 mm 0 W/m2
03:05 11.8 °C 6.1 °C 1014.9 hPa WNW 6.4 km/h 9.7 km/h 68% 0.0 mm 0 W/m2
03:10 11.8 °C 6.1 °C 1014.9 hPa North 4.7 km/h 14.5 km/h 68% 0.0 mm 0 W/m2
03:15 11.9 °C 6.2 °C 1014.9 hPa NNW 4.7 km/h 4.8 km/h 68% 0.0 mm 0 W/m2
03:20 11.8 °C 6.1 °C 1014.9 hPa SSE 3.2 km/h 8 km/h 68% 0.0 mm 0 W/m2
03:25 11.9 °C 6.2 °C 1014.6 hPa NNW 3.2 km/h 14.5 km/h 68% 0.0 mm 0 W/m2
03:30 11.9 °C 6.2 °C 1014.6 hPa North 1.4 km/h 8 km/h 68% 0.0 mm 0 W/m2
03:36 11.9 °C 6.2 °C 1014.6 hPa North 6.4 km/h 14.5 km/h 68% 0.0 mm 0 W/m2
03:41 11.8 °C 6.1 °C 1014.6 hPa North 3.2 km/h 8 km/h 68% 0.0 mm 0 W/m2
03:46 11.8 °C 6.1 °C 1014.6 hPa NE 6.4 km/h 8 km/h 68% 0.0 mm 0 W/m2
03:51 11.8 °C 6.1 °C 1014.6 hPa ENE 4.7 km/h 9.7 km/h 68% 0.0 mm 0 W/m2
03:56 11.9 °C 6.2 °C 1014.6 hPa ENE 1.4 km/h 3.2 km/h 68% 0.0 mm 0 W/m2
04:01 11.9 °C 6.2 °C 1014.6 hPa NNW 3.2 km/h 11.3 km/h 68% 0.0 mm 0 W/m2
04:06 12 °C 6.3 °C 1014.2 hPa East 3.2 km/h 11.3 km/h 68% 0.0 mm 0 W/m2
04:11 12.1 °C 6.4 °C 1014.2 hPa Calm   4.8 km/h 68% 0.0 mm 0 W/m2
04:16 12 °C 6.3 °C 1014.2 hPa NE 11.3 km/h 11.3 km/h 68% 0.0 mm 0 W/m2
04:21 11.7 °C 6.2 °C 1013.9 hPa ENE 3.2 km/h 8 km/h 69% 0.0 mm 0 W/m2
04:26 11.3 °C 6 °C 1013.9 hPa ENE 3.2 km/h 6.4 km/h 70% 0.0 mm 0 W/m2
04:31 11.1 °C 6 °C 1014.2 hPa ESE 3.2 km/h 4.8 km/h 71% 0.0 mm 0 W/m2
04:36 10.8 °C 6 °C 1013.9 hPa ESE 3.2 km/h 3.2 km/h 72% 0.0 mm 0 W/m2
04:42 10.7 °C 5.9 °C 1013.9 hPa ENE 3.2 km/h 4.8 km/h 72% 0.0 mm 0 W/m2
04:47 10.8 °C 6.2 °C 1014.2 hPa ESE 9.7 km/h 12.9 km/h 73% 0.0 mm 0 W/m2
04:52 11.1 °C 6.2 °C 1014.2 hPa Calm   3.2 km/h 72% 0.0 mm 0 W/m2
04:57 11.3 °C 6.2 °C 1014.2 hPa ESE 3.2 km/h 12.9 km/h 71% 0.0 mm 0 W/m2
05:02 11.4 °C 6.1 °C 1014.2 hPa NE 4.7 km/h 6.4 km/h 70% 0.0 mm 0 W/m2
05:07 11.6 °C 6.3 °C 1014.2 hPa WNW 1.4 km/h 4.8 km/h 70% 0.0 mm 0 W/m2
05:12 11.6 °C 6.1 °C 1014.2 hPa ENE 4.7 km/h 9.7 km/h 69% 0.0 mm 0 W/m2
05:17 11.7 °C 6.2 °C 1013.9 hPa North 1.4 km/h 12.9 km/h 69% 0.0 mm 0 W/m2
05:22 11.7 °C 6.2 °C 1013.9 hPa NNW 1.4 km/h 6.4 km/h 69% 0.0 mm 0 W/m2
05:27 11.8 °C 6.1 °C 1014.2 hPa East 4.7 km/h 12.9 km/h 68% 0.0 mm 0 W/m2
05:32 11.9 °C 6.2 °C 1013.9 hPa NNE 4.7 km/h 6.4 km/h 68% 0.0 mm 0 W/m2
05:37 11.9 °C 6.2 °C 1013.9 hPa East 1.4 km/h 14.5 km/h 68% 0.0 mm 0 W/m2
05:42 12 °C 6.3 °C 1014.2 hPa NNW 7.9 km/h 9.7 km/h 68% 0.0 mm 0 W/m2
05:47 12.1 °C 6.2 °C 1013.9 hPa NNW 6.4 km/h 6.4 km/h 67% 0.0 mm 0 W/m2
05:52 12.1 °C 6.4 °C 1014.2 hPa Calm   12.9 km/h 68% 0.0 mm 0 W/m2
05:57 12.1 °C 6.4 °C 1014.2 hPa WSW 3.2 km/h 14.5 km/h 68% 0.0 mm 0 W/m2
06:02 12.1 °C 6.4 °C 1014.2 hPa North 3.2 km/h 4.8 km/h 68% 0.0 mm 0 W/m2
06:07 12.1 °C 6.6 °C 1014.2 hPa NE 4.7 km/h 9.7 km/h 69% 0.0 mm 0 W/m2
06:12 12.1 °C 6.6 °C 1014.2 hPa NE 6.4 km/h 6.4 km/h 69% 0.0 mm 0 W/m2
06:17 11.9 °C 6.6 °C 1013.9 hPa Calm   3.2 km/h 70% 0.0 mm 0 W/m2
06:22 11.9 °C 6.6 °C 1013.9 hPa West 4.7 km/h 11.3 km/h 70% 0.0 mm 0 W/m2
06:27 11.8 °C 6.7 °C 1013.9 hPa WNW 4.7 km/h 4.8 km/h 71% 0.0 mm 0 W/m2
06:32 11.8 °C 6.9 °C 1013.9 hPa SW 1.4 km/h 1.6 km/h 72% 0.0 mm 0 W/m2
06:37 11.7 °C 7 °C 1013.9 hPa ENE 1.4 km/h 4.8 km/h 73% 0.0 mm 0 W/m2
06:42 11.6 °C 7.1 °C 1013.9 hPa WNW 1.4 km/h 12.9 km/h 74% 0.0 mm 0 W/m2
06:47 11.4 °C 6.9 °C 1013.9 hPa NW 3.2 km/h 4.8 km/h 74% 0.0 mm 0 W/m2
06:52 11.4 °C 7.1 °C 1013.5 hPa NW 4.7 km/h 12.9 km/h 75% 0.0 mm 0 W/m2
06:57 11.3 °C 7.2 °C 1013.9 hPa WNW 1.4 km/h 3.2 km/h 76% 0.2 mm 0 W/m2
07:02 11.3 °C 7.4 °C 1013.9 hPa SSE 1.4 km/h 6.4 km/h 77% 0.2 mm 0 W/m2
07:07 11.1 °C 7.4 °C 1013.5 hPa North 1.4 km/h 3.2 km/h 78% 0.2 mm 0 W/m2
07:12 11 °C 7.7 °C 1013.9 hPa East 4.7 km/h 4.8 km/h 80% 0.2 mm 0 W/m2
07:17 10.7 °C 7.6 °C 1013.9 hPa ESE 4.7 km/h 8 km/h 81% 0.5 mm 0 W/m2
07:22 10.6 °C 7.7 °C 1013.5 hPa NE 3.2 km/h 4.8 km/h 82% 0.5 mm 0 W/m2
07:27 10.4 °C 7.5 °C 1013.5 hPa NE 3.2 km/h 4.8 km/h 82% 0.5 mm 0 W/m2
07:32 10.4 °C 7.6 °C 1013.5 hPa NE 1.4 km/h 6.4 km/h 83% 0.5 mm 0 W/m2
07:37 10.3 °C 7.5 °C 1013.5 hPa South 1.4 km/h 4.8 km/h 83% 0.5 mm 0 W/m2
07:42 10.2 °C 7.4 °C 1013.5 hPa North 4.7 km/h 6.4 km/h 83% 0.5 mm 0 W/m2
07:47 10.1 °C 7.5 °C 1013.5 hPa NE 6.4 km/h 6.4 km/h 84% 0.8 mm 0 W/m2
07:52 10.1 °C 7.5 °C 1013.5 hPa NE 6.4 km/h 8 km/h 84% 0.8 mm 0 W/m2
07:57 10 °C 7.6 °C 1013.5 hPa North 3.2 km/h 4.8 km/h 85% 0.5 mm 0 W/m2
08:02 9.9 °C 7.5 °C 1013.9 hPa NE 1.4 km/h 4.8 km/h 85% 0.8 mm 0 W/m2
08:07 9.8 °C 7.4 °C 1013.9 hPa North 3.2 km/h 6.4 km/h 85% 0.8 mm 5 W/m2
08:12 9.8 °C 7.4 °C 1013.5 hPa East 1.4 km/h 6.4 km/h 85% 1.0 mm 7 W/m2
08:18 9.8 °C 7.6 °C 1013.9 hPa NNE 1.4 km/h 3.2 km/h 86% 0.8 mm 7 W/m2
08:23 9.8 °C 7.4 °C 1013.9 hPa Calm   6.4 km/h 85% 0.8 mm 9 W/m2
08:28 9.8 °C 7.7 °C 1013.5 hPa NE 3.2 km/h 4.8 km/h 87% 0.8 mm 11 W/m2
08:33 9.7 °C 7.6 °C 1013.5 hPa East 1.4 km/h 3.2 km/h 87% 1.0 mm 16 W/m2
08:38 9.6 °C 7.5 °C 1013.5 hPa ENE 3.2 km/h 6.4 km/h 87% 0.8 mm 18 W/m2
08:43 9.6 °C 7.5 °C 1013.5 hPa ENE 1.4 km/h 9.7 km/h 87% 0.8 mm 19 W/m2
08:48 9.7 °C 7.6 °C 1013.5 hPa NE 3.2 km/h 9.7 km/h 87% 0.5 mm 21 W/m2
08:53 9.7 °C 7.5 °C 1013.2 hPa ENE 1.4 km/h 6.4 km/h 86% 0.5 mm 25 W/m2
08:58 9.7 °C 7.5 °C 1013.5 hPa NW 4.7 km/h 9.7 km/h 86% 0.5 mm 25 W/m2
09:03 9.7 °C 7.5 °C 1013.5 hPa Calm   3.2 km/h 86% 0.5 mm 21 W/m2
09:08 9.7 °C 7.5 °C 1013.2 hPa East 1.4 km/h 6.4 km/h 86% 0.5 mm 21 W/m2
09:13 9.8 °C 7.4 °C 1013.2 hPa North 4.7 km/h 6.4 km/h 85% 0.5 mm 18 W/m2
09:18 9.9 °C 7.3 °C 1013.2 hPa ENE 7.9 km/h 8 km/h 84% 0.5 mm 18 W/m2
09:23 10.1 °C 7.5 °C 1012.9 hPa ENE 1.4 km/h 3.2 km/h 84% 0.5 mm 30 W/m2
09:28 10.1 °C 7.5 °C 1012.9 hPa ESE 4.7 km/h 9.7 km/h 84% 0.5 mm 46 W/m2
09:33 10.2 °C 7.6 °C 1012.9 hPa ENE 3.2 km/h 11.3 km/h 84% 0.2 mm 63 W/m2
09:38 10.2 °C 7.4 °C 1012.9 hPa ENE 3.2 km/h 12.9 km/h 83% 0.2 mm 58 W/m2
09:43 10.3 °C 7.4 °C 1012.9 hPa SE 3.2 km/h 6.4 km/h 82% 0.2 mm 76 W/m2
09:48 10.5 °C 7.6 °C 1012.5 hPa NNE 4.7 km/h 6.4 km/h 82% 0.2 mm 83 W/m2
09:53 10.7 °C 7.2 °C 1012.5 hPa East 3.2 km/h 9.7 km/h 79% 0.2 mm 100 W/m2
09:58 10.9 °C 7.4 °C 1012.5 hPa NE 1.4 km/h 3.2 km/h 79% 0.2 mm 118 W/m2
10:03 11.1 °C 7.2 °C 1012.2 hPa North 3.2 km/h 3.2 km/h 77% 0.0 mm 135 W/m2
10:08 11.3 °C 7.2 °C 1011.9 hPa NW 3.2 km/h 12.9 km/h 76% 0.0 mm 144 W/m2
10:13 11.5 °C 7.2 °C 1011.9 hPa NE 6.4 km/h 12.9 km/h 75% 0.0 mm 156 W/m2
10:18 11.7 °C 7.2 °C 1011.9 hPa NW 7.9 km/h 12.9 km/h 74% 0.0 mm 179 W/m2
10:23 11.9 °C 7.2 °C 1011.9 hPa NE 3.2 km/h 6.4 km/h 73% 0.0 mm 202 W/m2
10:28 12.2 °C 7.3 °C 1011.5 hPa NNW 16.3 km/h 16.1 km/h 72% 0.0 mm 229 W/m2
10:33 12.4 °C 6.9 °C 1011.5 hPa East 6.4 km/h 19.3 km/h 69% 0.0 mm 178 W/m2
10:38 12.7 °C 7.4 °C 1011.2 hPa NW 13 km/h 16.1 km/h 70% 0.0 mm 186 W/m2
10:43 12.8 °C 7 °C 1011.5 hPa ENE 7.9 km/h 19.3 km/h 68% 0.0 mm 186 W/m2
10:48 13 °C 7 °C 1011.5 hPa NNW 3.2 km/h 8 km/h 67% 0.0 mm 171 W/m2
10:53 13.2 °C 6.8 °C 1011.2 hPa WNW 14.3 km/h 27.4 km/h 65% 0.0 mm 155 W/m2
10:58 13.3 °C 6.6 °C 1011.2 hPa East 3.2 km/h 14.5 km/h 64% 0.0 mm 130 W/m2
11:03 13.4 °C 6.7 °C 1011.2 hPa North 4.7 km/h 20.9 km/h 64% 0.0 mm 127 W/m2
11:08 13.6 °C 6.7 °C 1011.2 hPa North 6.4 km/h 16.1 km/h 63% 0.0 mm 174 W/m2
11:13 13.8 °C 6.6 °C 1011.2 hPa NW 16.3 km/h 22.5 km/h 62% 0.0 mm 148 W/m2
11:18 13.8 °C 6.9 °C 1010.8 hPa NW 3.2 km/h 16.1 km/h 63% 0.0 mm 171 W/m2
11:23 13.9 °C 6.7 °C 1011.2 hPa NW 6.4 km/h 24.1 km/h 62% 0.0 mm 167 W/m2
11:28 13.9 °C 6.7 °C 1011.2 hPa North 6.4 km/h 14.5 km/h 62% 0.0 mm 163 W/m2
11:33 13.9 °C 6.7 °C 1011.2 hPa WNW 24.1 km/h 24.1 km/h 62% 0.0 mm 146 W/m2
11:38 14 °C 6.8 °C 1011.2 hPa NNW 13 km/h 22.5 km/h 62% 0.0 mm 141 W/m2
11:43 14.1 °C 6.9 °C 1011.2 hPa NNW 4.7 km/h 11.3 km/h 62% 0.0 mm 160 W/m2
11:48 14.1 °C 6.9 °C 1011.2 hPa SW 4.7 km/h 19.3 km/h 62% 0.0 mm 214 W/m2
11:53 14.2 °C 7 °C 1010.8 hPa WNW 6.4 km/h 12.9 km/h 62% 0.0 mm 199 W/m2
11:58 14.3 °C 7.1 °C 1010.8 hPa NNW 4.7 km/h 16.1 km/h 62% 0.0 mm 232 W/m2
12:03 14.4 °C 7.2 °C 1010.8 hPa North 4.7 km/h 12.9 km/h 62% 0.0 mm 232 W/m2
12:08 14.6 °C 7.4 °C 1010.8 hPa NW 9.7 km/h 12.9 km/h 62% 0.0 mm 308 W/m2
12:13 14.7 °C 7.3 °C 1010.8 hPa NNW 9.7 km/h 16.1 km/h 61% 0.0 mm 341 W/m2
12:18 14.9 °C 7.4 °C 1010.5 hPa NNW 3.2 km/h 14.5 km/h 61% 0.0 mm 308 W/m2
12:23 15.2 °C 7.5 °C 1010.8 hPa West 9.7 km/h 14.5 km/h 60% 0.0 mm 239 W/m2
12:28 15.3 °C 7.6 °C 1010.5 hPa West 6.4 km/h 19.3 km/h 60% 0.0 mm 283 W/m2
12:33 15.5 °C 7.5 °C 1010.5 hPa NW 7.9 km/h 16.1 km/h 59% 0.0 mm 290 W/m2
12:38 15.7 °C 7.5 °C 1010.2 hPa West 13 km/h 19.3 km/h 58% 0.0 mm 218 W/m2
12:43 15.9 °C 7.4 °C 1010.5 hPa WNW 6.4 km/h 17.7 km/h 57% 0.0 mm 251 W/m2
12:48 16.2 °C 7.1 °C 1010.2 hPa West 11.1 km/h 27.4 km/h 55% 0.0 mm 234 W/m2
12:53 16.3 °C 7.2 °C 1010.2 hPa West 22.7 km/h 32.2 km/h 55% 0.0 mm 246 W/m2
12:58 16.4 °C 7.1 °C 1010.2 hPa WSW 3.2 km/h 22.5 km/h 54% 0.0 mm 221 W/m2
13:03 16.6 °C 7.5 °C 1010.2 hPa NW 7.9 km/h 16.1 km/h 55% 0.0 mm 230 W/m2
13:08 16.7 °C 7.6 °C 1010.2 hPa NW 6.4 km/h 19.3 km/h 55% 0.0 mm 239 W/m2
13:13 16.8 °C 7.4 °C 1010.2 hPa NW 19.5 km/h 19.3 km/h 54% 0.0 mm 246 W/m2
13:18 16.9 °C 7.5 °C 1010.2 hPa NNW 3.2 km/h 12.9 km/h 54% 0.0 mm 230 W/m2
13:23 17 °C 7.3 °C 1010.2 hPa SW 6.4 km/h 6.4 km/h 53% 0.0 mm 193 W/m2
13:28 17 °C 7.3 °C 1009.8 hPa NNW 1.4 km/h 24.1 km/h 53% 0.0 mm 192 W/m2
13:33 17 °C 7.1 °C 1010.2 hPa WNW 25.9 km/h 25.7 km/h 52% 0.0 mm 151 W/m2
13:38 16.9 °C 7.3 °C 1009.5 hPa ENE 3.2 km/h 20.9 km/h 53% 0.0 mm 158 W/m2
13:43 17 °C 7.3 °C 1009.5 hPa NW 6.4 km/h 17.7 km/h 53% 0.0 mm 178 W/m2
13:48 17.1 °C 7.4 °C 1009.5 hPa NW 14.3 km/h 17.7 km/h 53% 0.0 mm 172 W/m2
13:53 17.1 °C 7.4 °C 1009.5 hPa West 17.7 km/h 17.7 km/h 53% 0.0 mm 190 W/m2
13:58 17.2 °C 7.5 °C 1009.1 hPa West 3.2 km/h 11.3 km/h 53% 0.0 mm 199 W/m2
14:03 17.2 °C 7.5 °C 1009.1 hPa WNW 6.4 km/h 16.1 km/h 53% 0.0 mm 190 W/m2
14:09 17.2 °C 7.5 °C 1009.1 hPa WNW 6.4 km/h 11.3 km/h 53% 0.0 mm 190 W/m2
14:14 17.3 °C 7.6 °C 1008.8 hPa WNW 3.2 km/h 11.3 km/h 53% 0.0 mm 174 W/m2
14:19 17.3 °C 7.6 °C 1009.1 hPa NNW 6.4 km/h 22.5 km/h 53% 0.0 mm 190 W/m2
14:30 17.5 °C 7.8 °C 1008.8 hPa WNW 6.4 km/h 6.4 km/h 53% 0.0 mm 202 W/m2
14:35 17.6 °C 7.9 °C 1009.1 hPa Calm   12.9 km/h 53% 0.0 mm 186 W/m2
14:40 17.6 °C 7.9 °C 1009.1 hPa WSW 4.7 km/h 12.9 km/h 53% 0.0 mm 188 W/m2
14:45 17.6 °C 7.6 °C 1009.1 hPa East 7.9 km/h 9.7 km/h 52% 0.0 mm 183 W/m2
14:50 17.7 °C 7.7 °C 1009.1 hPa East 13 km/h 22.5 km/h 52% 0.0 mm 178 W/m2
14:55 17.7 °C 7.7 °C 1009.1 hPa South 7.9 km/h 17.7 km/h 52% 0.0 mm 163 W/m2
15:00 17.7 °C 7.7 °C 1008.8 hPa North 6.4 km/h 8 km/h 52% 0.0 mm 160 W/m2
15:05 17.7 °C 7.7 °C 1008.8 hPa West 24.1 km/h 24.1 km/h 52% 0.0 mm 153 W/m2
15:10 17.7 °C 7.7 °C 1008.8 hPa NNW 3.2 km/h 6.4 km/h 52% 0.0 mm 135 W/m2
15:15 17.7 °C 8 °C 1008.5 hPa ENE 6.4 km/h 9.7 km/h 53% 0.0 mm 114 W/m2
15:20 17.7 °C 8 °C 1008.5 hPa East 3.2 km/h 8 km/h 53% 0.0 mm 116 W/m2
15:25 17.6 °C 7.6 °C 1008.5 hPa NNW 1.4 km/h 11.3 km/h 52% 0.0 mm 121 W/m2
15:30 17.4 °C 7.7 °C 1008.5 hPa NNW 4.7 km/h 8 km/h 53% 0.0 mm 125 W/m2
15:35 17.3 °C 7.6 °C 1008.8 hPa NE 3.2 km/h 12.9 km/h 53% 0.0 mm 116 W/m2
15:40 17.2 °C 7.5 °C 1008.8 hPa WNW 6.4 km/h 24.1 km/h 53% 0.0 mm 111 W/m2
15:45 17.1 °C 7.7 °C 1008.8 hPa WNW 6.4 km/h 6.4 km/h 54% 0.0 mm 102 W/m2
15:50 17 °C 7.6 °C 1008.8 hPa East 14.3 km/h 24.1 km/h 54% 0.0 mm 93 W/m2
15:55 16.9 °C 7.8 °C 1008.5 hPa ENE 3.2 km/h 4.8 km/h 55% 0.0 mm 95 W/m2
16:00 16.7 °C 7.9 °C 1008.5 hPa North 7.9 km/h 14.5 km/h 56% 0.0 mm 83 W/m2
16:05 16.6 °C 8 °C 1008.8 hPa Calm   8 km/h 57% 0.0 mm 79 W/m2
16:10 16.4 °C 7.9 °C 1008.5 hPa North 1.4 km/h 12.9 km/h 57% 0.0 mm 77 W/m2
16:15 16.3 °C 7.8 °C 1008.8 hPa ENE 1.4 km/h 16.1 km/h 57% 0.0 mm 79 W/m2
16:20 16.2 °C 7.9 °C 1008.8 hPa NNW 4.7 km/h 9.7 km/h 58% 0.0 mm 72 W/m2
16:25 16.1 °C 7.8 °C 1008.8 hPa East 6.4 km/h 16.1 km/h 58% 0.0 mm 62 W/m2
16:30 16 °C 7.7 °C 1008.5 hPa North 3.2 km/h 6.4 km/h 58% 0.0 mm 58 W/m2
16:35 15.8 °C 7.6 °C 1008.5 hPa North 6.4 km/h 16.1 km/h 58% 0.0 mm 58 W/m2
16:40 15.7 °C 7.7 °C 1008.5 hPa NNW 9.7 km/h 9.7 km/h 59% 0.0 mm 51 W/m2
16:45 15.6 °C 7.6 °C 1008.5 hPa NNE 3.2 km/h 16.1 km/h 59% 0.0 mm 46 W/m2
16:50 15.5 °C 7.5 °C 1008.5 hPa NNE 4.7 km/h 8 km/h 59% 0.0 mm 40 W/m2
16:55 15.3 °C 7.6 °C 1008.5 hPa North 7.9 km/h 8 km/h 60% 0.0 mm 33 W/m2
17:00 15.2 °C 7.5 °C 1008.5 hPa NNE 3.2 km/h 8 km/h 60% 0.0 mm 30 W/m2
17:05 15.1 °C 7.6 °C 1008.5 hPa NW 4.7 km/h 11.3 km/h 61% 0.0 mm 30 W/m2
17:10 15.1 °C 7.6 °C 1008.5 hPa NNW 6.4 km/h 8 km/h 61% 0.0 mm 23 W/m2
17:15 15 °C 7.5 °C 1008.8 hPa ENE 3.2 km/h 9.7 km/h 61% 0.0 mm 18 W/m2
17:20 14.9 °C 7.4 °C 1008.5 hPa ENE 4.7 km/h 8 km/h 61% 0.0 mm 14 W/m2
17:25 14.9 °C 7.7 °C 1008.5 hPa ENE 3.2 km/h 6.4 km/h 62% 0.0 mm 12 W/m2
17:30 14.8 °C 7.6 °C 1008.5 hPa NE 9.7 km/h 14.5 km/h 62% 0.0 mm 9 W/m2
17:35 14.8 °C 7.6 °C 1008.5 hPa East 9.7 km/h 22.5 km/h 62% 0.0 mm 7 W/m2
17:40 14.9 °C 7.7 °C 1008.5 hPa NE 4.7 km/h 19.3 km/h 62% 0.0 mm 5 W/m2
17:45 14.9 °C 7.7 °C 1008.5 hPa WNW 7.9 km/h 24.1 km/h 62% 0.0 mm 0 W/m2
17:50 14.9 °C 7.7 °C 1008.5 hPa NNW 4.7 km/h 9.7 km/h 62% 0.0 mm 0 W/m2
17:55 14.9 °C 7.7 °C 1008.5 hPa NE 3.2 km/h 20.9 km/h 62% 0.0 mm 0 W/m2
18:01 14.9 °C 7.7 °C 1008.5 hPa East 3.2 km/h 8 km/h 62% 0.0 mm 0 W/m2
18:06 14.8 °C 7.6 °C 1008.5 hPa NNW 9.7 km/h 19.3 km/h 62% 0.0 mm 0 W/m2
18:11 14.8 °C 7.8 °C 1008.1 hPa WNW 1.4 km/h 14.5 km/h 63% 0.0 mm 0 W/m2
18:16 14.8 °C 7.8 °C 1008.1 hPa WNW 6.4 km/h 16.1 km/h 63% 0.0 mm 0 W/m2
18:21 14.8 °C 7.8 °C 1008.5 hPa WNW 1.4 km/h 16.1 km/h 63% 0.0 mm 0 W/m2
18:26 14.8 °C 7.8 °C 1008.5 hPa NNE 6.4 km/h 6.4 km/h 63% 0.0 mm 0 W/m2
18:31 14.7 °C 7.7 °C 1008.5 hPa Calm   14.5 km/h 63% 0.0 mm 0 W/m2
18:36 14.7 °C 7.7 °C 1008.5 hPa ENE 6.4 km/h 12.9 km/h 63% 0.0 mm 0 W/m2
18:41 14.7 °C 7.7 °C 1008.5 hPa West 16.3 km/h 17.7 km/h 63% 0.0 mm 0 W/m2
18:46 14.7 °C 8 °C 1008.5 hPa NW 7.9 km/h 20.9 km/h 64% 0.0 mm 0 W/m2
18:51 14.7 °C 8 °C 1008.5 hPa NW 4.7 km/h 12.9 km/h 64% 0.0 mm 0 W/m2
18:56 14.7 °C 8 °C 1008.5 hPa NW 9.7 km/h 14.5 km/h 64% 0.0 mm 0 W/m2
19:01 14.8 °C 8.1 °C 1008.5 hPa WSW 6.4 km/h 19.3 km/h 64% 0.0 mm 0 W/m2
19:06 14.8 °C 8.1 °C 1008.8 hPa West 11.1 km/h 25.7 km/h 64% 0.0 mm 0 W/m2
19:11 14.8 °C 8.1 °C 1008.8 hPa NNW 16.3 km/h 16.1 km/h 64% 0.0 mm 0 W/m2
19:16 14.8 °C 8.1 °C 1008.8 hPa NW 4.7 km/h 14.5 km/h 64% 0.0 mm 0 W/m2
19:21 14.8 °C 8.1 °C 1008.8 hPa WNW 7.9 km/h 12.9 km/h 64% 0.0 mm 0 W/m2
19:26 14.8 °C 8.1 °C 1008.8 hPa NW 6.4 km/h 11.3 km/h 64% 0.0 mm 0 W/m2
19:31 14.8 °C 8.1 °C 1008.5 hPa South 3.2 km/h 3.2 km/h 64% 0.0 mm 0 W/m2
19:36 14.8 °C 8.1 °C 1008.5 hPa NNW 16.3 km/h 16.1 km/h 64% 0.0 mm 0 W/m2
19:42 14.8 °C 8.1 °C 1008.5 hPa WNW 7.9 km/h 20.9 km/h 64% 0.0 mm 0 W/m2
19:47 14.8 °C 8.1 °C 1008.5 hPa NW 7.9 km/h 19.3 km/h 64% 0.0 mm 0 W/m2
19:52 14.8 °C 8.1 °C 1008.5 hPa NNW 7.9 km/h 12.9 km/h 64% 0.0 mm 0 W/m2
19:57 14.8 °C 8.3 °C 1008.5 hPa North 11.1 km/h 16.1 km/h 65% 0.0 mm 0 W/m2
20:02 14.8 °C 8.3 °C 1008.5 hPa ENE 6.4 km/h 12.9 km/h 65% 0.0 mm 0 W/m2
20:07 14.8 °C 8.3 °C 1008.5 hPa ENE 6.4 km/h 11.3 km/h 65% 0.0 mm 0 W/m2
20:12 14.7 °C 8.4 °C 1008.5 hPa NNW 6.4 km/h 27.4 km/h 66% 0.0 mm 0 W/m2
20:17 14.7 °C 8.4 °C 1008.5 hPa WSW 7.9 km/h 14.5 km/h 66% 0.0 mm 0 W/m2
20:22 14.7 °C 8.4 °C 1008.5 hPa ENE 6.4 km/h 19.3 km/h 66% 0.0 mm 0 W/m2
20:27 14.6 °C 8.3 °C 1008.1 hPa West 4.7 km/h 17.7 km/h 66% 0.0 mm 0 W/m2
20:32 14.6 °C 8.3 °C 1008.1 hPa East 3.2 km/h 17.7 km/h 66% 0.0 mm 0 W/m2
20:37 14.6 °C 8.5 °C 1008.1 hPa NNW 1.4 km/h 20.9 km/h 67% 0.0 mm 0 W/m2
20:42 14.6 °C 8.5 °C 1008.1 hPa NW 4.7 km/h 14.5 km/h 67% 0.0 mm 0 W/m2
20:47 14.6 °C 8.5 °C 1008.5 hPa North 9.7 km/h 19.3 km/h 67% 0.0 mm 0 W/m2
20:52 14.7 °C 8.4 °C 1008.1 hPa ENE 6.4 km/h 25.7 km/h 66% 0.0 mm 0 W/m2
20:57 14.7 °C 8.4 °C 1007.8 hPa WSW 7.9 km/h 19.3 km/h 66% 0.0 mm 0 W/m2
21:02 14.6 °C 8.5 °C 1008.1 hPa NW 13 km/h 27.4 km/h 67% 0.0 mm 0 W/m2
21:07 14.6 °C 8.5 °C 1008.1 hPa SSW 9.7 km/h 22.5 km/h 67% 0.0 mm 0 W/m2
21:12 14.6 °C 8.3 °C 1008.5 hPa East 3.2 km/h 8 km/h 66% 0.0 mm 0 W/m2
21:17 14.6 °C 8.5 °C 1008.1 hPa South 4.7 km/h 17.7 km/h 67% 0.0 mm 0 W/m2
21:22 14.6 °C 8.5 °C 1008.1 hPa SSE 13 km/h 22.5 km/h 67% 0.0 mm 0 W/m2
21:27 14.7 °C 8.4 °C 1008.5 hPa NNW 7.9 km/h 17.7 km/h 66% 0.0 mm 0 W/m2
21:32 14.7 °C 8.6 °C 1008.5 hPa NNW 6.4 km/h 16.1 km/h 67% 0.0 mm 0 W/m2
21:37 14.7 °C 8.6 °C 1008.5 hPa NW 14.3 km/h 22.5 km/h 67% 0.0 mm 0 W/m2
21:42 14.7 °C 8.6 °C 1008.5 hPa WSW 3.2 km/h 27.4 km/h 67% 0.0 mm 0 W/m2
21:47 14.7 °C 8.6 °C 1008.5 hPa West 13 km/h 17.7 km/h 67% 0.0 mm 0 W/m2
21:52 14.7 °C 8.6 °C 1008.5 hPa WNW 6.4 km/h 9.7 km/h 67% 0.0 mm 0 W/m2
21:57 14.7 °C 8.6 °C 1008.5 hPa WSW 11.1 km/h 19.3 km/h 67% 0.0 mm 0 W/m2
22:02 14.7 °C 8.6 °C 1008.5 hPa North 4.7 km/h 22.5 km/h 67% 0.0 mm 0 W/m2
22:07 14.7 °C 8.6 °C 1008.5 hPa NW 4.7 km/h 14.5 km/h 67% 0.0 mm 0 W/m2
22:12 14.7 °C 8.6 °C 1008.5 hPa West 11.1 km/h 20.9 km/h 67% 0.0 mm 0 W/m2
22:17 14.6 °C 8.5 °C 1008.1 hPa East 11.1 km/h 19.3 km/h 67% 0.0 mm 0 W/m2
22:22 14.6 °C 8.5 °C 1008.1 hPa NE 11.1 km/h 20.9 km/h 67% 0.0 mm 0 W/m2
22:28 14.6 °C 8.5 °C 1008.5 hPa WNW 4.7 km/h 14.5 km/h 67% 0.0 mm 0 W/m2
22:33 14.6 °C 8.8 °C 1008.5 hPa NNE 4.7 km/h 9.7 km/h 68% 0.0 mm 0 W/m2
22:38 14.6 °C 8.5 °C 1008.5 hPa NW 4.7 km/h 14.5 km/h 67% 0.0 mm 0 W/m2
22:43 14.6 °C 8.8 °C 1008.8 hPa NNE 6.4 km/h 14.5 km/h 68% 0.0 mm 0 W/m2
22:48 14.3 °C 9.1 °C 1008.8 hPa NW 4.7 km/h 12.9 km/h 71% 0.2 mm 0 W/m2
22:53 14 °C 9.2 °C 1009.5 hPa NW 4.7 km/h 9.7 km/h 73% 0.2 mm 0 W/m2
22:58 13.8 °C 9.2 °C 1010.2 hPa NW 4.7 km/h 12.9 km/h 74% 0.2 mm 0 W/m2
23:03 13.1 °C 9.5 °C 1010.8 hPa WNW 14.3 km/h 30.6 km/h 79% 0.8 mm 0 W/m2
23:08 11.8 °C 9 °C 1011.2 hPa NNW 13 km/h 30.6 km/h 83% 1.3 mm 0 W/m2
23:13 10.9 °C 8.5 °C 1011.2 hPa WNW 7.9 km/h 27.4 km/h 85% 1.3 mm 0 W/m2
23:18 10.4 °C 8.3 °C 1011.2 hPa WNW 11.1 km/h 30.6 km/h 87% 1.3 mm 0 W/m2
23:23 10.1 °C 8.2 °C 1011.2 hPa WNW 32 km/h 37 km/h 88% 1.5 mm 0 W/m2
23:28 9.8 °C 7.9 °C 1011.2 hPa WNW 13 km/h 17.7 km/h 88% 1.5 mm 0 W/m2
23:33 9.7 °C 7.8 °C 1011.9 hPa West 14.3 km/h 32.2 km/h 88% 1.5 mm 0 W/m2
23:38 9.6 °C 7.7 °C 1011.9 hPa WSW 13 km/h 17.7 km/h 88% 1.5 mm 0 W/m2
23:43 9.5 °C 7.8 °C 1011.9 hPa WSW 11.1 km/h 16.1 km/h 89% 1.5 mm 0 W/m2
23:48 9.3 °C 7.6 °C 1011.9 hPa WSW 4.7 km/h 11.3 km/h 89% 1.3 mm 0 W/m2
23:53 9.3 °C 7.6 °C 1011.9 hPa West 14.3 km/h 16.1 km/h 89% 1.3 mm 0 W/m2
23:58 9.2 °C 7.6 °C 1012.2 hPa West 6.4 km/h 11.3 km/h 90% 1.5 mm 0 W/m2
Juneau County Weather
Compliments of Weather Underground - 4 mb